C/2018 A1 ( PanSTARRS )

Japanese version
Home page
Updated on January 12, 2018

---------------------------------------------------------------------

* Profile

Discovery Date January 6, 2018
Magnitude 19.1 mag
Discoverer Pan-STARRS 1 telescope (Haleakala)

* Orbital Elements

T 2017 Nov. 17.14707 TT                                 MPCW
q   2.6401226            (2000.0)            P               Q
                   Peri.  109.10956     -0.05589741     -0.92268779
                   Node   332.89108     +0.24431540     +0.35781626
e   1.0            Incl.   56.84014     +0.96808340     -0.14357842
From 32 observations 2018 Jan. 6-11.

* Magnitudes Graph

        m1 = 12.5 + 5 log d + 10.0 log r

---------------------------------------------------------------------

The orbital elements are published on M.P.E.C. 2018-A43.
The magnitudes graphs are made with Comet for Windows.

---------------------------------------------------------------------

Copyright(C) Seiichi Yoshida (comet@aerith.net). All rights reserved.